Home > Weather > Mombasa > Past weeks

Flag for Kenya Weather for the Past 2 Weeks in Mombasa, Kenya

Now
75 °F

Partly sunny.


Feels Like: 74 °F
Forecast: 78 / 87 °F
Wind: 3 mph from West

Location: Mombasa Airport

Current Time: Apr 29, 2016 at 8:12:09 AM

Latest Report: Apr 29, 2016 at 7:00 AM


Visibility: N/A

Pressure: 29.89 "Hg

Humidity: 94%

Dew Point: 73 °F

Location of MombasaLocation

Historic Weather in Mombasa — Graph

°F

Mombasa Temperature Yesterday

Maximum temperature yesterday: 79 °F (at 12:00 AM)
Minimum temperature yesterday: 77 °F (at 7:00 AM)
Average temperature yesterday: 78 °F

High & Low Weather Summary for the Past Weeks

 TemperatureHumidityPressure
High91 °F (Apr 19, 12:00 PM)100% (Apr 14, 9:00 PM)29.98 "Hg (Apr 14, 9:00 PM)
Low75 °F (Apr 15, 7:00 AM)59% (Apr 19, 12:00 PM)29.62 "Hg (Apr 25, 9:00 AM)
Average82 °F84%29.87 "Hg
* Reported Apr 14 7:30 AM — Apr 29 7:00 AM, Mombasa, Weather by CustomWeather, © 2016

Note: Actual official high and low records may vary slightly from our data, if they occured in-between our weather recording intervals... More about our weather records

Advertising

Mombasa Weather History for the Previous 24 Hours

Scroll right to see more
 ConditionsComfort  
Time TempWeatherWind HumidityBarometerVisibility
7:00 AM
Fri, Apr 29
75 °FPartly sunny.3 mph94%29.89 "HgN/A
6:00 AM75 °FPassing clouds.5 mph94%29.86 "HgN/A
5:00 AM75 °FPassing clouds.5 mph94%29.86 "HgN/A
3:00 AM75 °FPassing clouds.5 mph94%29.83 "HgN/A
2:00 AM75 °FPassing clouds.5 mph94%29.86 "HgN/A
12:00 AM77 °FPassing clouds.3 mph94%29.89 "HgN/A
11:00 PM
Thu, Apr 28
77 °FPassing clouds.5 mph94%29.89 "HgN/A
10:00 PM77 °FPassing clouds.No wind94%29.83 "HgN/A
9:00 PM77 °FPassing clouds.7 mph94%29.86 "HgN/A
8:00 PM79 °FPassing clouds.9 mph89%29.86 "HgN/A
7:00 PM79 °FPartly cloudy.5 mph89%29.86 "HgN/A
6:00 PM79 °FBroken clouds.5 mph89%29.86 "HgN/A
5:00 PM79 °FBroken clouds.5 mph89%29.86 "HgN/A
4:00 PM79 °FPartly sunny.6 mph94%29.86 "HgN/A
3:00 PM79 °FRain. Mostly cloudy.6 mph94%29.86 "Hg4 mi
2:00 PM79 °FLight rain. Mostly cloudy.3 mph94%29.86 "HgN/A
1:00 PM77 °FRain. Mostly cloudy.7 mph100%29.92 "Hg4 mi
12:00 PM77 °FRain. Mostly cloudy.7 mph94%29.92 "Hg4 mi
11:00 AM77 °FScattered showers. Mostly cloudy.5 mph94%29.92 "HgN/A
10:00 AM79 °FMostly cloudy.10 mph89%29.92 "HgN/A
8:00 AM77 °FPartly sunny.12 mph89%29.92 "HgN/A
Weather by CustomWeather, © 2016

See weather overviewHow to use our weather pages